Location: Dal�� Lhota
(48.7500°N, 14.0167°E)
Time: 08:54:49
(UTC+00:00)

Explorer 7 - Pass Details

Date: 08 August 2021
Orbit: 484 x 676 km, 50.3° (Epoch: 21 September)

Event Time Altitude Azimuth Distance (km) Brightness Sun altitude
Rises 02:25:11 0° 243° (WSW) 2,539 - -12.0°
Reaches altitude 10° 02:27:21 10° 240° (WSW) 1,663 - -11.7°
Exits shadow 02:28:24 18° 238° (WSW) 1,248 8.0 -11.6°
Maximum altitude 02:31:04 68° 158° (SSE) 532 6.6 -11.3°
Drops below altitude 10° 02:34:53 10° 75° (ENE) 1,710 10.5 -10.8°
Sets 02:37:07 0° 73° (ENE) 2,619 11.7 -10.5°
